When you browse on this site, cookies collect data to enhance your experience and personalize the content and advertising you see.
Visit our Privacy Policy to learn more. By continuing to use the site, you agree to this use of cookies and data.
  • In Hungary
  • List of Countries
  • For 7 days
  • Water Temperature
  • Weather Map
  • News
  • Weather Widgets
  • user-avatar
    Login

    Hourly Weather Sparta

    Today, 18 August, Sunday

    Time Temperature Precipitation Wind Pressure Humidity
    00:00 +23°C° 0 mm 1 mps 743 mmHg 83%
    01:00 +23°C° 0 mm 1 mps 743 mmHg 83%
    02:00 +22°C° 0 mm 1 mps 743 mmHg 82%
    03:00 +22°C° 0 mm 1 mps 742 mmHg 81%
    04:00 +22°C° 0 mm 1 mps 742 mmHg 79%
    05:00 +24°C° 0 mm 1 mps 743 mmHg 70%
    06:00 +25°C° 0 mm 1 mps 743 mmHg 61%
    07:00 +27°C° 0 mm 1 mps 743 mmHg 51%
    08:00 +28°C° 0 mm 2 mps 744 mmHg 45%
    09:00 +30°C° 0 mm 2 mps 744 mmHg 39%
    10:00 +33°C° 0 mm 3 mps 744 mmHg 32%
    11:00 +33°C° 0 mm 3 mps 744 mmHg 32%
    12:00 +34°C° 0 mm 3 mps 744 mmHg 32%
    13:00 +34°C° 0 mm 4 mps 744 mmHg 32%
    14:00 +33°C° 0 mm 4 mps 744 mmHg 35%
    15:00 +32°C° 0 mm 4 mps 744 mmHg 39%
    16:00 +31°C° 0 mm 3 mps 743 mmHg 42%
    17:00 +29°C° 0 mm 3 mps 743 mmHg 50%
    18:00 +26°C° 0 mm 2 mps 743 mmHg 59%
    19:00 +24°C° 0 mm 1 mps 743 mmHg 67%
    20:00 +24°C° 0 mm 1 mps 744 mmHg 67%
    21:00 +23°C° 0 mm 1 mps 744 mmHg 66%
    22:00 +23°C° 0 mm 1 mps 744 mmHg 66%
    23:00 +23°C° 0 mm 1 mps 743 mmHg 62%

    Tomorrow, 19 August, Monday

    Time Temperature Precipitation Wind Pressure Humidity
    00:00 +23°C° 0 mm 2 mps 743 mmHg 59%
    01:00 +21°C° 0 mm 2 mps 743 mmHg 56%
    02:00 +21°C° 0 mm 2 mps 743 mmHg 54%
    03:00 +21°C° 0 mm 2 mps 743 mmHg 51%
    04:00 +21°C° 0 mm 2 mps 743 mmHg 49%
    05:00 +24°C° 0 mm 2 mps 743 mmHg 44%
    06:00 +26°C° 0 mm 2 mps 743 mmHg 40%
    07:00 +28°C° 0 mm 3 mps 744 mmHg 35%
    08:00 +30°C° 0 mm 3 mps 744 mmHg 33%
    09:00 +32°C° 0 mm 4 mps 744 mmHg 30%
    10:00 +33°C° 0 mm 5 mps 744 mmHg 28%
    11:00 +34°C° 0 mm 5 mps 744 mmHg 27%
    12:00 +35°C° 0 mm 5 mps 744 mmHg 26%
    13:00 +35°C° 0 mm 5 mps 744 mmHg 26%
    14:00 +35°C° 0 mm 5 mps 744 mmHg 27%
    15:00 +34°C° 0 mm 5 mps 743 mmHg 28%
    16:00 +33°C° 0 mm 4 mps 743 mmHg 29%
    17:00 +30°C° 0 mm 4 mps 744 mmHg 34%
    18:00 +28°C° 0 mm 3 mps 744 mmHg 39%
    19:00 +26°C° 0 mm 2 mps 744 mmHg 44%
    20:00 +25°C° 0 mm 2 mps 744 mmHg 43%
    21:00 +25°C° 0 mm 2 mps 744 mmHg 43%
    22:00 +24°C° 0 mm 2 mps 744 mmHg 43%
    23:00 +24°C° 0 mm 2 mps 744 mmHg 44%

    Day after tomorrow, 20 August, Tuesday

    Time Temperature Precipitation Wind Pressure Humidity
    00:00 +24°C° 0 mm 2 mps 744 mmHg 45%
    01:00 +23°C° 0 mm 2 mps 743 mmHg 45%
    02:00 +23°C° 0 mm 2 mps 744 mmHg 46%
    03:00 +23°C° 0 mm 2 mps 744 mmHg 46%
    04:00 +22°C° 0 mm 3 mps 744 mmHg 46%
    05:00 +25°C° 0 mm 3 mps 744 mmHg 41%
    06:00 +27°C° 0 mm 4 mps 744 mmHg 36%
    07:00 +29°C° 0 mm 4 mps 745 mmHg 32%
    08:00 +30°C° 0 mm 5 mps 745 mmHg 30%
    09:00 +33°C° 0 mm 5 mps 745 mmHg 28%
    10:00 +34°C° 0 mm 5 mps 745 mmHg 26%
    11:00 +35°C° 0 mm 5 mps 745 mmHg 26%
    12:00 +35°C° 0 mm 5 mps 745 mmHg 26%
    13:00 +35°C° 0 mm 5 mps 745 mmHg 26%
    14:00 +35°C° 0 mm 5 mps 745 mmHg 28%
    15:00 +34°C° 0 mm 4 mps 745 mmHg 29%
    16:00 +34°C° 0 mm 4 mps 744 mmHg 30%
    17:00 +31°C° 0 mm 3 mps 744 mmHg 35%
    18:00 +28°C° 0 mm 3 mps 745 mmHg 40%
    19:00 +26°C° 0 mm 2 mps 745 mmHg 45%
    20:00 +26°C° 0 mm 2 mps 745 mmHg 45%
    21:00 +25°C° 0 mm 2 mps 745 mmHg 45%
    22:00 +24°C° 0 mm 2 mps 745 mmHg 45%
    23:00 +24°C° 0 mm 2 mps 744 mmHg 44%

    21 August, Wednesday

    Time Temperature Precipitation Wind Pressure Humidity
    00:00 +24°C° 0 mm 2 mps 744 mmHg 44%
    01:00 +24°C° 0 mm 2 mps 744 mmHg 44%
    02:00 +24°C° 0 mm 2 mps 744 mmHg 45%
    03:00 +24°C° 0 mm 2 mps 744 mmHg 45%
    04:00 +24°C° 0 mm 2 mps 744 mmHg 45%
    05:00 +25°C° 0 mm 2 mps 744 mmHg 42%
    06:00 +27°C° 0 mm 3 mps 744 mmHg 38%
    07:00 +29°C° 0 mm 3 mps 744 mmHg 35%
    08:00 +31°C° 0 mm 3 mps 744 mmHg 32%
    09:00 +34°C° 0 mm 4 mps 745 mmHg 28%
    10:00 +35°C° 0 mm 4 mps 745 mmHg 25%
    11:00 +36°C° 0 mm 4 mps 744 mmHg 25%
    12:00 +36°C° 0 mm 4 mps 744 mmHg 25%
    13:00 +37°C° 0 mm 4 mps 744 mmHg 24%
    14:00 +36°C° 0 mm 4 mps 744 mmHg 26%
    15:00 +36°C° 0 mm 4 mps 743 mmHg 27%
    16:00 +35°C° 0 mm 4 mps 743 mmHg 28%
    17:00 +31°C° 0 mm 3 mps 743 mmHg 35%
    18:00 +29°C° 0 mm 2 mps 743 mmHg 42%
    19:00 +26°C° 0 mm 2 mps 743 mmHg 48%
    20:00 +26°C° 0 mm 2 mps 743 mmHg 48%
    21:00 +25°C° 0 mm 2 mps 743 mmHg 49%
    22:00 +25°C° 0 mm 2 mps 744 mmHg 49%
    23:00 +25°C° 0 mm 2 mps 743 mmHg 52%

    22 August, Thursday

    Time Temperature Precipitation Wind Pressure Humidity
    00:00 +25°C° 0 mm 2 mps 743 mmHg 55%
    01:00 +25°C° 0 mm 2 mps 743 mmHg 57%
    02:00 +25°C° 0 mm 2 mps 743 mmHg 59%
    03:00 +25°C° 0 mm 2 mps 743 mmHg 61%
    04:00 +25°C° 0 mm 2 mps 742 mmHg 63%
    05:00 +27°C° 0 mm 3 mps 743 mmHg 58%
    06:00 +29°C° 0 mm 3 mps 743 mmHg 52%
    07:00 +30°C° 0 mm 4 mps 743 mmHg 47%
    08:00 +33°C° 0 mm 4 mps 743 mmHg 43%
    09:00 +34°C° 0 mm 5 mps 743 mmHg 39%
    10:00 +36°C° 0 mm 5 mps 744 mmHg 35%
    11:00 +37°C° 0 mm 5 mps 743 mmHg 34%
    12:00 +37°C° 0 mm 5 mps 743 mmHg 33%
    13:00 +39°C° 0 mm 5 mps 743 mmHg 32%
    14:00 +37°C° 0 mm 5 mps 743 mmHg 33%
    15:00 +36°C° 0 mm 5 mps 743 mmHg 35%
    16:00 +36°C° 0 mm 5 mps 742 mmHg 36%
    17:00 +33°C° 0 mm 4 mps 743 mmHg 41%
    18:00 +30°C° 0 mm 3 mps 743 mmHg 46%
    19:00 +28°C° 0 mm 2 mps 743 mmHg 52%
    20:00 +28°C° 0 mm 2 mps 743 mmHg 53%
    21:00 +27°C° 0 mm 2 mps 743 mmHg 55%
    22:00 +27°C° 0 mm 2 mps 743 mmHg 57%
    23:00 +27°C° 0 mm 2 mps 743 mmHg 57%

    23 August, Friday

    Time Temperature Precipitation Wind Pressure Humidity
    00:00 +27°C° 0 mm 2 mps 743 mmHg 57%
    01:00 +27°C° 0 mm 2 mps 742 mmHg 58%
    02:00 +27°C° 0 mm 2 mps 742 mmHg 58%
    03:00 +27°C° 0 mm 2 mps 742 mmHg 58%
    04:00 +27°C° 0 mm 3 mps 742 mmHg 58%
    05:00 +28°C° 0 mm 4 mps 742 mmHg 53%
    06:00 +30°C° 0 mm 4 mps 742 mmHg 47%
    07:00 +32°C° 0 mm 5 mps 743 mmHg 42%
    08:00 +34°C° 0 mm 6 mps 743 mmHg 38%
    09:00 +35°C° 0 mm 6 mps 743 mmHg 35%
    10:00 +36°C° 0 mm 6 mps 743 mmHg 31%
    11:00 +38°C° 0 mm 6 mps 743 mmHg 31%
    12:00 +38°C° 0 mm 6 mps 743 mmHg 30%
    13:00 +38°C° 0 mm 6 mps 743 mmHg 30%
    14:00 +38°C° 0 mm 6 mps 742 mmHg 32%
    15:00 +36°C° 0 mm 5 mps 742 mmHg 34%
    16:00 +35°C° 0 mm 5 mps 742 mmHg 35%
    17:00 +33°C° 0 mm 4 mps 742 mmHg 40%
    18:00 +30°C° 0 mm 4 mps 742 mmHg 45%
    19:00 +28°C° 0 mm 3 mps 742 mmHg 50%
    20:00 +28°C° 0 mm 3 mps 742 mmHg 51%
    21:00 +27°C° 0 mm 2 mps 742 mmHg 51%
    22:00 +26°C° 0 mm 2 mps 742 mmHg 52%
    23:00 +27°C° 0 mm 2 mps 742 mmHg 51%
    Show more